Weather History for KBJI - August, 2013

Change the Weather History Date:

Wednesday, August 7, 2013

  Actual Average Record
Temperature  
Mean Temperature 56 °F -  
Max Temperature 68 °F 79 °F 99 °F (1983)
Min Temperature 45 °F 56 °F 43 °F (1972)
Degree Days  
Heating Degree Days 8    
Growing Degree Days 6 (Base 50)    
Moisture  
Dew Point 49 °F    
Average Humidity 77    
Maximum Humidity 99    
Minimum Humidity 48    
Precipitation  
Precipitation 0.01 in - - ()
Sea Level Pressure  
Sea Level Pressure 29.98 in    
Wind  
Wind Speed 6 mph (NW)    
Max Wind Speed 13 mph    
Max Gust Speed 17 mph    
Visibility 9 miles    
Events Fog , Rain    
Averages and records for this station are not official NWS values.
T = Trace of Precipitation, MM = Missing Value Source: NWS Daily Summary

Daily Weather History Graph

Daily Weather History Graph

Search for Another Location

Airport or City:

Trip Planner

Search our weather history database for the weather conditions in past years. The results will help you decide how hot, cold, wet, or windy it might be!

Date:

Astronomy

Aug. 07, 2013 Rise Set
Actual Time 6:05 AM CDT 8:44 PM CDT
Civil Twilight 5:30 AM CDT 9:19 PM CDT
Nautical Twilight 4:46 AM CDT 10:03 PM CDT
Astronomical Twilight 3:54 AM CDT 10:54 PM CDT
Moon 7:03 AM CDT (8/7) 8:41 PM CDT (8/7)
Length of Visible Light 15h 48m
Length of Day
14h 38m
New Moon, 1% of the Moon is Illuminated
Aug 7
New Moon
Aug 14
First Quarter
Aug 20
Full
Aug 28
Last Quarter
Sep 5
New

Hourly Weather History & Observations

Time (CDT) Temp. Windchill Dew Point Humidity Pressure Visibility Wind Dir Wind Speed Gust Speed Precip Events Conditions
12:10 AM 49.8 °F - 49.5 °F 99% 29.87 in 7.0 mi NW 4.6 mph - N/A   Clear
12:30 AM 49.5 °F - 49.1 °F 99% 29.87 in 7.0 mi WNW 4.6 mph - N/A   Clear
12:51 AM 48.6 °F - 47.8 °F 97% 29.88 in 10.0 mi NW 4.6 mph - N/A   Clear
1:11 AM 47.5 °F - 46.9 °F 98% 29.88 in 7.0 mi WNW 4.6 mph - N/A   Clear
1:30 AM 49.3 °F - 48.2 °F 96% 29.89 in 10.0 mi WNW 4.6 mph - N/A   Clear
1:51 AM 48.0 °F - 47.5 °F 98% 29.90 in 7.0 mi WNW 4.6 mph - N/A   Clear
2:11 AM 47.7 °F - 47.3 °F 99% 29.90 in 1.0 mi NW 5.8 mph - N/A   Mist
2:30 AM 48.0 °F - 47.8 °F 99% 29.90 in 0.2 mi NW 5.8 mph - N/A Fog Fog
2:51 AM 47.5 °F - 47.3 °F 99% 29.91 in 0.5 mi WNW 5.8 mph - N/A Fog Fog
3:10 AM 47.8 °F - 47.7 °F 99% 29.91 in 10.0 mi WNW 5.8 mph - N/A   Clear
3:30 AM 48.4 °F - 48.0 °F 99% 29.91 in 10.0 mi WNW 4.6 mph - N/A   Clear
3:51 AM 48.2 °F - 48.0 °F 99% 29.91 in 10.0 mi NW 6.9 mph - N/A   Clear
4:11 AM 49.1 °F - 48.6 °F 98% 29.92 in 10.0 mi NW 6.9 mph - N/A   Clear
4:30 AM 47.8 °F - 47.3 °F 98% 29.92 in 10.0 mi NW 5.8 mph - N/A   Clear
4:51 AM 47.5 °F - 47.1 °F 99% 29.93 in 10.0 mi WNW 4.6 mph - N/A   Clear
5:10 AM 46.8 °F - 46.2 °F 98% 29.93 in 10.0 mi NW 4.6 mph - N/A   Clear
5:30 AM 47.1 °F - 46.8 °F 99% 29.93 in 10.0 mi WNW 4.6 mph - N/A   Clear
5:51 AM 46.8 °F - 46.0 °F 97% 29.94 in 10.0 mi WNW 4.6 mph - N/A   Clear
6:11 AM 45.5 °F 42.5 °F 45.3 °F 99% 29.96 in 5.0 mi WNW 5.8 mph - N/A   Clear
6:30 AM 47.3 °F - 46.4 °F 97% 29.96 in 10.0 mi WNW 5.8 mph - N/A   Clear
6:51 AM 45.9 °F 43.6 °F 45.3 °F 98% 29.96 in 10.0 mi NW 4.6 mph - N/A   Clear
7:11 AM 48.6 °F - 47.7 °F 97% 29.96 in 10.0 mi NW 5.8 mph - N/A   Clear
7:30 AM 50.2 °F - 48.7 °F 95% 29.97 in 10.0 mi WNW 5.8 mph - N/A   Clear
7:51 AM 51.6 °F - 49.6 °F 93% 29.97 in 10.0 mi NW 8.1 mph - N/A   Clear
8:10 AM 52.7 °F - 50.4 °F 92% 29.98 in 10.0 mi NW 8.1 mph - N/A   Clear
8:30 AM 54.5 °F - 50.9 °F 88% 29.98 in 10.0 mi NW 8.1 mph - N/A   Clear
8:51 AM 56.5 °F - 51.6 °F 84% 29.98 in 10.0 mi NNW 8.1 mph - N/A   Clear
9:11 AM 57.9 °F - 49.6 °F 74% 29.99 in 10.0 mi NNW 8.1 mph - N/A   Clear
9:30 AM 59.0 °F - 47.3 °F 65% 30.00 in 10.0 mi NNW 9.2 mph - N/A   Clear
9:51 AM 60.4 °F - 45.9 °F 59% 30.00 in 10.0 mi NNW 10.4 mph - N/A   Clear
10:11 AM 61.0 °F - 46.2 °F 58% 30.00 in 10.0 mi NNW 8.1 mph - N/A   Clear
10:30 AM 61.5 °F - 47.3 °F 60% 30.01 in 10.0 mi NNW 6.9 mph - N/A   Clear
10:50 AM 63.0 °F - 47.7 °F 57% 30.01 in 10.0 mi NNW 6.9 mph - N/A   Clear
11:11 AM 62.8 °F - 45.7 °F 54% 30.01 in 10.0 mi NW 8.1 mph - N/A   Clear
11:30 AM 63.3 °F - 46.2 °F 54% 30.01 in 10.0 mi North 9.2 mph - N/A   Clear
11:50 AM 63.9 °F - 46.0 °F 52% 30.01 in 5.0 mi NNW 9.2 mph - N/A   Haze
12:10 PM 64.6 °F - 45.9 °F 51% 30.02 in 7.0 mi WNW 9.2 mph 16.1 mph N/A   Clear
12:30 PM 65.1 °F - 46.0 °F 50% 30.02 in 10.0 mi WNW 12.7 mph 17.3 mph N/A   Clear
12:51 PM 65.7 °F - 46.6 °F 50% 30.02 in 10.0 mi North 9.2 mph - N/A   Clear
1:11 PM 65.8 °F - 46.4 °F 49% 30.02 in 10.0 mi WNW 12.7 mph - N/A   Mostly Cloudy
1:30 PM 67.6 °F - 47.1 °F 48% 30.02 in 7.0 mi NW 12.7 mph - N/A   Mostly Cloudy
1:50 PM 66.4 °F - 46.6 °F 49% 30.02 in 7.0 mi WNW 11.5 mph - N/A   Mostly Cloudy
2:11 PM 66.2 °F - 47.3 °F 51% 30.02 in 7.0 mi WNW 9.2 mph - N/A   Overcast
2:30 PM 67.6 °F - 47.7 °F 49% 30.02 in 7.0 mi WNW 9.2 mph - N/A   Overcast
2:50 PM 66.7 °F - 46.6 °F 48% 30.02 in 10.0 mi WNW 11.5 mph 16.1 mph N/A   Overcast
3:10 PM 67.1 °F - 48.2 °F 51% 30.01 in 7.0 mi North 6.9 mph - N/A   Mostly Cloudy
3:30 PM 65.5 °F - 48.4 °F 54% 30.02 in 10.0 mi North 5.8 mph - N/A   Overcast
3:51 PM 67.5 °F - 48.6 °F 51% 30.02 in 10.0 mi NNW 9.2 mph - N/A   Overcast
4:10 PM 66.6 °F - 48.0 °F 51% 30.01 in 10.0 mi NNW 4.6 mph - N/A   Mostly Cloudy
4:30 PM 68.0 °F - 48.4 °F 49% 30.01 in 7.0 mi North 5.8 mph - N/A   Mostly Cloudy
4:51 PM 67.8 °F - 47.5 °F 48% 30.00 in 10.0 mi Calm Calm - N/A   Overcast
5:10 PM 67.3 °F - 48.9 °F 52% 30.00 in 7.0 mi ENE 6.9 mph - N/A   Mostly Cloudy
5:30 PM 65.5 °F - 48.9 °F 55% 30.01 in 7.0 mi NNW 6.9 mph - N/A   Mostly Cloudy
5:51 PM 64.6 °F - 49.3 °F 58% 30.00 in 10.0 mi North 4.6 mph - N/A   Overcast
6:11 PM 64.6 °F - 50.0 °F 59% 30.00 in 7.0 mi NNE 3.5 mph - N/A   Overcast
6:30 PM 64.4 °F - 50.2 °F 60% 30.00 in 10.0 mi North 3.5 mph - N/A   Overcast
6:50 PM 63.9 °F - 50.7 °F 62% 30.00 in 10.0 mi North 3.5 mph - N/A   Overcast
7:10 PM 63.0 °F - 50.9 °F 65% 30.00 in 10.0 mi North 3.5 mph - N/A Rain Light Rain
7:30 PM 59.9 °F - 54.3 °F 82% 30.02 in 7.0 mi NNW 4.6 mph - N/A Rain Rain
7:51 PM 59.2 °F - 54.0 °F 83% 30.02 in 10.0 mi NNW 5.8 mph - 0.01 in   Overcast
8:11 PM 59.0 °F - 54.0 °F 83% 30.02 in 10.0 mi NW 3.5 mph - N/A   Overcast
8:30 PM 58.3 °F - 53.2 °F 83% 30.01 in 10.0 mi North 3.5 mph - N/A   Mostly Cloudy
8:50 PM 57.6 °F - 52.9 °F 84% 30.01 in 10.0 mi Calm Calm - N/A   Scattered Clouds
9:10 PM 57.2 °F - 52.9 °F 85% 30.02 in 7.0 mi Calm Calm - N/A   Mostly Cloudy
9:30 PM 56.7 °F - 53.8 °F 90% 30.02 in 10.0 mi Calm Calm - N/A   Overcast
9:51 PM 56.8 °F - 54.0 °F 90% 30.02 in 10.0 mi Calm Calm - N/A   Overcast
10:11 PM 56.8 °F - 54.3 °F 91% 30.02 in 10.0 mi Calm Calm - N/A   Overcast
10:30 PM 57.0 °F - 54.5 °F 91% 30.02 in 10.0 mi Calm Calm - N/A   Light Drizzle
10:51 PM 57.4 °F - 53.6 °F 87% 30.02 in 10.0 mi Calm Calm - N/A   Overcast
11:11 PM 56.5 °F - 54.5 °F 93% 30.03 in 10.0 mi NW 3.5 mph - N/A Rain Light Rain
11:30 PM 56.3 °F - 54.5 °F 94% 30.03 in 10.0 mi Calm Calm - N/A   Overcast
11:50 PM 55.8 °F - 54.1 °F 94% 30.03 in 10.0 mi NW 3.5 mph - N/A   Overcast